www.pogodaiklimat.ru

Погода и климат >> Архив погоды >> Ирак >> Рифаи


ПОГОДА в Рифаи

  • Прогноз погоды в Рифаи
  • Монитор погоды в Рифаи

АРХИВ ПОГОДЫ в Рифаи

Время (UTC), дата Ветер
(напр.,м/с)
 
Видим.   Явления Облачность Т
(С)
Тd
(С)
f
(%)
Тe
(С)
Тes
(С)
Комфортность P
(гПа)
Po
(гПа)
Тmin
(С)
Tmax
(С)
R
(мм)
R24
(мм)
S
(см)
12 11.09 СЗ 7 10 км ясно +39.8 +4.2 11 +37 +39 очень
жарко
1005.9 1005.2
21 11.09 З 3 10 км ясно +29.0 +11.3 33 +30 +30 жарко 1006.0 1005.3
03 12.09 СЗ 2 10 км ясно +23.8 +11.3 45 +25 +25 комфорт 1006.0 1005.3
06 12.09 СЗ 3 10 км 3/3 1050 м
[Sc]
+32.6 +13.9 32 +34 +39 очень
жарко
1007.3 1006.6 +23.6
09 12.09 СЗ 6 10 км ясно +38.6 +4.3 12 +36 +42 очень
жарко
1006.8 1006.1
12 12.09 СЗ 8 10 км ясно +40.2 +7.3 14 +38 +39 очень
жарко
1005.2 1004.5
15 12.09 СЗ 3 10 км ясно +37.4 +8.5 17 +35 +35 очень
жарко
1004.7 1004.0
18 12.09 З 4 10 км ясно +33.2 +10.4 25 +33 +33 жарко 1005.2 1005.0 +40.4
21 12.09 З 3 10 км ясно +29.4 +9.9 30 +29 +29 жарко 1005.0 1004.3
00 13.09 З 3 10 км ясно +26.6 +9.1 33 +27 +27 жарко 1004.0 1003.3
06 13.09 З 4 10 км ясно +31.2 +10.3 28 +31 +37 жарко 1006.6 1005.9 +24.4
12 13.09 Ю 2 10 км ясно +41.4 +8.6 14 +39 +48 очень
жарко
1005.0 1004.3
15 13.09 С 2 10 км ясно +38.4 +10.4 19 +37 +37 очень
жарко
1004.9 1004.2
18 13.09 С 2 10 км ясно +33.8 +11.5 26 +34 +34 очень
жарко
1005.9 1005.2 +41.4
21 13.09 С 2 10 км ясно +31.6 +10.9 28 +32 +32 жарко 1005.8 1005.1
03 14.09 штиль 0 10 км ясно +29.0 +11.3 33 +30 +30 жарко 1006.0 1005.3
06 14.09 штиль 0 10 км ясно +35.8 +12.3 24 +36 +47 очень
жарко
1007.6 1006.9 +27.4
09 14.09 З 2 10 км ясно +40.0 +8.2 15 +38 +55 опасность
солнечного
удара
1006.8 1006.1
12 14.09 СЗ 2 10 км ясно +42.4 +6.8 12 +40 +48 очень
жарко
1005.5 1004.8
15 14.09 штиль 0 10 км ясно +40.4 +10.2 16 +39 +39 очень
жарко
1004.7 1004.0
18 14.09 штиль 0 10 км ясно +35.0 +11.9 25 +35 +35 очень
жарко
1005.6 1004.9 +42.6
21 14.09 штиль 0 10 км ясно +33.4 +10.3 24 +33 +33 жарко 1005.2 1004.5
00 15.09 штиль 0 10 км ясно +28.8 +12.0 35 +30 +30 жарко 1004.5 1003.8
03 15.09 штиль 0 10 км ясно +27.8 +13.3 41 +30 +30 жарко 1005.0 1004.3
06 15.09 З 2 10 км ясно +33.8 +9.9 23 +33 +42 жарко 1006.4 1005.7 +27.6
09 15.09 З 2 10 км ясно +41.6 +7.7 13 +39 +56 опасность
солнечного
удара
1005.6 1004.9
12 15.09 З 3 10 км ясно +44.8 +8.2 11 +43 +49 опасность
перегрева
1004.0 1003.4
15 15.09 З 3 10 км 3/0
[Ac trans]
+41.6 +12.5 18 +41 +41 опасность
перегрева
1003.4 1002.7
18 15.09 З 2 10 км 4/0
[Ac trans]
+36.0 +9.9 20 +35 +35 очень
жарко
1004.7 1004.0 +45.0
21 15.09 штиль 0 10 км ясно +31.8 +11.7 29 +32 +32 жарко 1005.6 1004.9
00 16.09 штиль 0 10 км ясно +30.4 +12.9 34 +31 +31 жарко 1005.6 1004.9
03 16.09 штиль 0 10 км 1/0
[Ac trans]
+24.8 +13.5 49 +27 +27 жарко 1006.6 1005.9
06 16.09 СВ 2 10 км ясно +33.8 +15.2 33 +36 +44 очень
душно
1007.6 1006.9 +24.4
09 16.09 В 2 10 км ясно +41.8 +12.3 18 +41 +58 опасность
перегрева
1007.1 1006.4
12 16.09 штиль 0 10 км ясно +44.8 +11.4 14 +44 +54 опасность
перегрева
1005.7 1005.1
15 16.09 штиль 0 10 км ясно +42.0 +14.8 20 +43 +43 опасность
перегрева
1005.6 1004.9
21 16.09 С 2 10 км ясно +35.2 +10.1 22 +34 +34 очень
жарко
1006.1 1005.4
03 17.09 штиль 0 10 км ясно +28.2 +11.6 36 +29 +29 жарко 1006.0 1005.3
06 17.09 штиль 0 10 км 3/0
[Ci fib]
+34.8 +12.6 26 +35 +46 очень
жарко
1007.1 1006.4 +27.5
09 17.09 С 2 10 км 1/0
[Ci fib]
+42.6 +9.9 14 +41 +57 опасность
перегрева
1006.5 1005.8
12 17.09 СЗ 3 10 км 1/0
[Ci fib]
+45.4 +8.9 12 +44 +50 опасность
перегрева
1004.7 1004.1
15 17.09 СЗ 2 10 км 6/0
[Cs]
+41.4 +9.8 15 +40 +40 очень
жарко
1004.5 1003.8
18 17.09 СЗ 4 10 км 4/0
[Ci fib]
+36.0 +10.5 21 +35 +35 очень
жарко
1005.5 1004.8 +45.4
21 17.09 СЗ 6 10 км 4/0
[Ci fib]
+32.8 +10.8 26 +32 +32 жарко 1005.4 1004.7
00 18.09 СЗ 4 10 км ясно +30.4 +11.0 30 +31 +31 жарко 1005.0 1004.3

 

Местоположение метеостанции Рифаи (Ирак): широта 31.72 долгота 46.10 высота над уровнем моря 6 м.

В архиве по умолчанию представлена погода в Рифаи за последнюю неделю. Архивные данные за месяц целиком и за предыдущие месяцы, начиная с января 2011 года, Вы можете получить, выбрав интересующий диапазон дат из раскрывающегося списка и нажав кнопку "Ввод!".


*Определитесь, кто Вы:
робот инопланетянин человек

Внимание! Время в таблицах - всемирное. Для получения местного времени необходимо прибавить поправку, которая равна 3 ч.

Смотрите также архив погоды в соседних городах и на ближайших метеорологических станциях:

Погода в Кут-аль-Хай (Ирак) (50 км)
Погода в Насирии (Ирак) (72 км)
Погода в Эс-Самаве (Ирак) (92 км)
Погода в Убайда Бин Аль Джарра (Ирак) (92 км)
Погода в Али Аль-Гарби (Ирак) (102 км)
Погода в Амаре (Ирак) (102 км)
Погода в Дивании (Ирак) (110 км)
Погода в Бадре (Ирак) (154 км)
Погода в Эль-Азизии (Ирак) (165 км)
Погода в Наджафе (Ирак) (171 км)

Пояснения к столбцам:

Ветер - указаны скорость ветра в м/с - средняя за 10 мин, порывы в срок и между сроками (в фигурных скобках) и направление, откуда дует ветер: С - северный, СВ - северо-восточный, В - восточный, ЮВ - юго-восточный, Ю - южный, ЮЗ - юго-западный, З - западный, СЗ - северо-западный.
Видимость - горизонтальная дальность видимости в метрах или километрах. При видимости от 1 до 10 км при отсутствии осадков обычно наблюдается дымка, при ухудшении видимости до 1 км и менее - туман. В сухую погоду видимость может ухудшаться дымом, пылью или мглою.
Явления - указаны атмосферные явления, наблюдавшиеся в срок или в последний час перед сроком; фигурными скобками обозначены явления, наблюдавшиеся между сроками (за 1-3 часа до срока); квадратными скобками обозначены град или гололедные отложения с указанием их диаметра в мм.
Облачность - указаны через наклонную черту общая и нижняя облачность в баллах и высота нижней границы облаков в метрах; квадратными скобками обозначены формы облаков: Ci - перистые, Cs - перисто-слоистые, Cc - перисто-кучевые, Ac - высококучевые, As - высокослоистые, Sc - слоисто-кучевые, Ns - слоисто-дождевые, Cu - кучевые, Cb - кучево-дождевые. Подробнее классификацию облаков см. в Атласе облаков (PDF).
T - Температура воздуха - температура, измеренная на высоте 2 м над землей.
Td - Температура точки росы - температура, при понижении до которой содержащийся в воздухе водяной пар достигнет насыщения.
f - Относительная влажность воздуха - влажноcть воздуха, измеренная на высоте 2 м над землей.
Te - Эффективная температура - температура, которую ощущает одетый по сезону человек в тени. Характеристика душности погоды. При расчете учитывается влияние влажности воздуха и скорости ветра на теплоощущения человека.
Tes - Эффективная температура на солнце - температура, которую ощущает человек, с поправкой на солнечный нагрев. Характеристика знойности погоды. Зависит от высоты солнца над горизонтом, облачности и скорости ветра. Ночью, в пасмурную погоду, а также при ветре 12 м/с и более поправка равна нулю.
P - Атмосферное давление - приведенное к уровню моря атмосферное давление.
Po - Атмосферное давление - измеренное на уровне метеостанции атмосферное давление.
Tmin - Минимальная температура - минимум температуры воздуха на высоте 2 м над землей.
Tmax - Максимальная температура - максимум температуры воздуха на высоте 2 м над землей.
R - Количество осадков - Количество выпавших осадков за период времени, мм. При наведении курсора мыши на число - период времени, за который выпало указанное количество осадков.
R24 - Количество осадков - Количество выпавших осадков за 24 часа, мм.
S - Снежный покров - Высота снежного покрова, см. При наведении курсора мыши на число - состояние снежного покрова и степень покрытия местности в баллах.